User: anonymous   Login
Location: Newark
(25.6108°S, 54.5803°W)
Time: 01:25:11
(UTC+00:00)
Language:

Transit 2A - Orbit

View from above orbital plane
View from above orbital plane
View from above satellite
View from above satellite

Ground track
Ground track

The orbit data is extracted from the following two-line orbital elements,

1    45U 60007A   20300.52509033 -.00000014 +00000-0 +23545-4 0  9993
2    45 066.6963 035.4710 0260539 221.4300 136.6788 14.33691917084627
Epoch (UTC): 26 October 2020 12:36:07
Eccentricity: 0.0260539
inclination: 66.6963°
perigee height: 593 km
apogee height: 966 km
right ascension of ascending node: 35.4710°
argument of perigee: 221.4300°
revolutions per day: 14.33691917
mean anomaly at epoch: 136.6788°
orbit number at epoch: 8462

The dashed part of the orbit path shows where the satellite is in the earth's shadow,  

DLR